Poplar Bluff, MO

1:04 AM CDT on March 26, 2017 (GMT -0500)
Poplar Bluff Municipal

Weather History for KPOF - November, 2010

Change the Weather History Date:

Wednesday, November 10, 2010

  Actual Average Record
Temperature  
Mean Temperature 57 °F -  
Max Temperature 75 °F 61 °F 80 °F (1935)
Min Temperature 39 °F 37 °F 19 °F (1953)
Degree Days  
Heating Degree Days 8    
Growing Degree Days 7 (Base 50)    
Moisture  
Dew Point 47 °F    
Average Humidity 74    
Maximum Humidity 93    
Minimum Humidity 50    
Precipitation  
Precipitation 0.00 in - - ()
Sea Level Pressure  
Sea Level Pressure 30.08 in    
Wind  
Wind Speed 2 mph (SSW)    
Max Wind Speed 15 mph    
Max Gust Speed 18 mph    
Visibility 8 miles    
Events      
Averages and records for this station are not official NWS values.
T = Trace of Precipitation, MM = Missing Value Source: NWS Daily Summary

Daily Weather History Graph

Daily Weather History Graph

Search for Another Location

Airport or City:

Trip Planner

Search our weather history database for the weather conditions in past years. The results will help you decide how hot, cold, wet, or windy it might be!

Date:

Astronomy

Nov. 10, 2010 Rise Set
Actual Time 6:34 AM CST 4:55 PM CST
Civil Twilight 6:06 AM CST 5:23 PM CST
Nautical Twilight 5:35 AM CST 5:54 PM CST
Astronomical Twilight 5:05 AM CST 6:24 PM CST
Moon 10:55 AM CST (11/10) 9:00 PM CST (11/10)
Length of Visible Light 11h 16m
Length of Day
10h 21m
Waxing Crescent, 23% of the Moon is Illuminated
Nov 10
Waxing Crescent
Nov 13
First Quarter
Nov 21
Full
Nov 28
Last Quarter
Dec 5
New

Hourly Weather History & Observations

Time (CST) Temp. Windchill Dew Point Humidity Pressure Visibility Wind Dir Wind Speed Gust Speed Precip Events Conditions
12:53 AM 42.1 °F - 37.9 °F 85% 30.02 in 7.0 mi Calm Calm - N/A   Clear
2:53 AM 41.0 °F - 37.9 °F 89% 30.03 in 7.0 mi Calm Calm - N/A   Clear
3:53 AM 39.0 °F - 37.0 °F 93% 30.04 in 7.0 mi Calm Calm - N/A   Clear
4:53 AM 39.9 °F - 37.0 °F 89% 30.04 in 7.0 mi Calm Calm - N/A   Clear
5:53 AM 41.0 °F 37.1 °F 37.9 °F 89% 30.05 in 7.0 mi Variable 5.8 mph 18.4 mph N/A   Clear
6:53 AM 39.0 °F - 37.0 °F 93% 30.07 in 5.0 mi Calm Calm - N/A   Clear
7:53 AM 48.0 °F - 42.1 °F 80% 30.09 in 5.0 mi Calm Calm - N/A   Haze
8:53 AM 54.0 °F - 44.1 °F 69% 30.08 in 7.0 mi Calm Calm - N/A   Clear
9:53 AM 62.1 °F - 46.0 °F 56% 30.09 in 10.0 mi SSW 6.9 mph - N/A   Mostly Cloudy
10:53 AM 70.0 °F - 51.1 °F 51% 30.08 in 10.0 mi SSW 6.9 mph - N/A   Scattered Clouds
11:53 AM 75.0 °F - 55.9 °F 51% 30.06 in 10.0 mi SW 15.0 mph - N/A   Partly Cloudy
12:53 PM 71.1 °F - 55.9 °F 59% 30.06 in 6.0 mi WSW 11.5 mph - N/A   Haze
1:53 PM 71.1 °F - 55.9 °F 59% 30.04 in 10.0 mi SSW 8.1 mph - N/A   Overcast
2:53 PM 73.9 °F - 54.0 °F 50% 30.04 in 10.0 mi South 11.5 mph - N/A   Partly Cloudy
3:53 PM 73.0 °F - 54.0 °F 51% 30.05 in 10.0 mi SSE 5.8 mph - N/A   Mostly Cloudy
4:53 PM 70.0 °F - 53.1 °F 55% 30.05 in 10.0 mi Calm Calm - N/A   Partly Cloudy
5:53 PM 63.0 °F - 53.1 °F 70% 30.07 in 10.0 mi Calm Calm - N/A   Clear
6:53 PM 59.0 °F - 52.0 °F 78% 30.09 in 10.0 mi ESE 3.5 mph - N/A   Clear
7:53 PM 57.9 °F - 51.1 °F 78% 30.11 in 10.0 mi Calm Calm - N/A   Clear
8:53 PM 53.1 °F - 50.0 °F 89% 30.13 in 7.0 mi Calm Calm - N/A   Clear
9:53 PM 52.0 °F - 48.9 °F 89% 30.14 in 9.0 mi Calm Calm - N/A   Mostly Cloudy
10:53 PM 53.1 °F - 48.9 °F 86% 30.15 in 8.0 mi Calm Calm - N/A   Scattered Clouds
11:53 PM 50.0 °F - 48.0 °F 93% 30.17 in 8.0 mi Calm Calm - N/A   Clear